Simultaneous Nadir Overpasses (SNOs) Predictions

Prediction of SNOs between NOAA-20 and METOP-C Satellite Orbit:

Table of predicted SNOs for the next 14.0 days since TLE Epoch: 6/18/2021
Index Date (NOAA-20) Time (NOAA-20) Lat,Lon (NOAA-20) SZA (NOAA-20 ) Date (METOP-C) Time (METOP-C) Lat,Lon (METOP-C) SZA (METOP-C ) Distance(km) Time Diff (sec)
1 06/29/2021 12:48:07 73.28, -21.39 50.31 06/29/2021 12:49:15 73.22, -19.17 50.12 71.49 68
2 06/29/2021 13:38:50 -73.22, 146.06 129.76 06/29/2021 13:39:59 -73.17, 148.03 129.94 63.50 69
3 06/29/2021 14:29:31 72.98, -46.12 49.98 06/29/2021 14:30:42 72.95, -45.10 49.88 33.33 71
4 06/29/2021 15:20:14 -72.92, 121.33 130.09 06/29/2021 15:21:26 -72.89, 122.10 130.17 25.48 72
5 06/29/2021 16:10:56 72.73, -70.97 49.71 06/29/2021 16:12:08 72.72, -70.91 49.68 2.34 72
6 06/29/2021 17:01:40 -72.72, 96.37 130.30 06/29/2021 17:02:51 -72.72, 96.40 130.32 1.29 71
7 06/29/2021 17:52:25 72.69, -96.25 49.67 06/29/2021 17:53:30 72.70, -96.30 49.67 2.04 65
8 06/29/2021 18:43:09 -72.68, 71.09 130.35 06/29/2021 18:44:13 -72.69, 71.01 130.34 3.08 64
9 06/29/2021 19:33:55 72.69,-121.64 49.68 06/29/2021 19:34:52 72.68,-121.69 49.65 2.45 57
10 06/29/2021 20:24:39 -72.68, 45.70 130.34 06/29/2021 20:25:35 -72.67, 45.63 130.35 2.70 56
11 06/29/2021 21:15:25 72.70,-147.02 49.69 06/29/2021 21:16:13 72.70,-146.97 49.68 1.92 48
12 06/29/2021 22:06:09 -72.69, 20.32 130.33 06/29/2021 22:06:56 -72.70, 20.34 130.33 1.77 47
13 06/29/2021 22:56:55 72.70,-172.40 49.70 06/29/2021 22:57:35 72.68,-172.35 49.66 2.78 40
14 06/29/2021 23:47:39 -72.69, -5.07 130.32 06/29/2021 23:48:18 -72.68, -5.04 130.34 1.74 39
15 06/30/2021 00:38:24 72.66, 162.32 49.65 06/30/2021 00:38:57 72.66, 162.26 49.65 1.87 33
16 06/30/2021 01:29:08 -72.65, -30.35 130.36 06/30/2021 01:29:40 -72.66, -30.43 130.36 2.85 32
17 06/30/2021 02:19:54 72.66, 136.93 49.66 06/30/2021 02:20:19 72.64, 136.87 49.63 3.24 25
18 06/30/2021 03:10:38 -72.65, -55.73 130.35 06/30/2021 03:11:02 -72.63, -55.81 130.37 3.30 24
19 06/30/2021 04:01:24 72.67, 111.55 49.67 06/30/2021 04:01:40 72.67, 111.59 49.66 1.53 16
20 06/30/2021 04:52:08 -72.65, -81.12 130.34 06/30/2021 04:52:23 -72.66, -81.09 130.34 0.99 15
21 06/30/2021 05:42:53 72.62, 86.27 49.62 06/30/2021 05:43:02 72.64, 86.21 49.65 3.26 9
22 06/30/2021 06:33:38 -72.66,-106.50 130.33 06/30/2021 06:33:45 -72.64,-106.48 130.36 2.43 7
23 06/30/2021 07:24:23 72.62, 60.88 49.63 06/30/2021 07:24:24 72.62, 60.82 49.63 2.06 1
24 06/30/2021 08:15:07 -72.61,-131.78 130.38 06/30/2021 08:15:07 -72.62,-131.87 130.37 2.84 0
25 06/30/2021 09:05:53 72.63, 35.50 49.64 06/30/2021 09:05:45 72.65, 35.54 49.66 2.59 8
26 06/30/2021 09:56:37 -72.62,-157.16 130.37 06/30/2021 09:56:28 -72.64,-157.15 130.34 2.94 9
27 06/30/2021 10:47:23 72.63, 10.11 49.65 06/30/2021 10:47:07 72.63, 10.15 49.65 1.59 16
28 06/30/2021 11:38:07 -72.62, 177.45 130.36 06/30/2021 11:37:50 -72.62, 177.47 130.36 0.53 17
29 06/30/2021 12:28:52 72.59, -15.17 49.61 06/30/2021 12:28:29 72.60, -15.23 49.63 2.77 23
30 06/30/2021 13:19:37 -72.63, 152.07 130.35 06/30/2021 13:19:12 -72.60, 152.08 130.37 3.21 25
31 06/30/2021 14:10:22 72.59, -40.55 49.62 06/30/2021 14:09:51 72.58, -40.62 49.62 2.54 31
32 06/30/2021 15:01:06 -72.58, 126.79 130.40 06/30/2021 15:00:34 -72.58, 126.70 130.39 3.05 32
33 06/30/2021 15:51:52 72.60, -65.94 49.63 06/30/2021 15:51:12 72.61, -65.90 49.65 1.80 40
34 06/30/2021 16:42:36 -72.59, 101.40 130.39 06/30/2021 16:41:55 -72.61, 101.41 130.36 2.09 41
35 06/30/2021 17:33:22 72.60, -91.32 49.64 06/30/2021 17:32:34 72.59, -91.28 49.63 2.07 48
36 06/30/2021 18:24:06 -72.59, 76.02 130.38 06/30/2021 18:23:17 -72.58, 76.03 130.37 1.03 49
37 06/30/2021 19:14:51 72.56,-116.60 49.59 06/30/2021 19:13:56 72.56,-116.67 49.62 2.48 55
38 06/30/2021 20:05:34 -72.55, 50.74 130.42 06/30/2021 20:04:38 -72.56, 50.64 130.39 3.52 56
39 06/30/2021 20:56:20 72.56,-141.99 49.60 06/30/2021 20:55:17 72.54,-142.06 49.60 3.18 63
40 06/30/2021 21:47:04 -72.55, 25.35 130.41 06/30/2021 21:46:00 -72.54, 25.26 130.40 3.46 64
41 06/30/2021 22:37:50 72.57,-167.37 49.61 06/30/2021 22:36:38 72.57,-167.34 49.63 1.16 72
42 06/30/2021 23:28:34 -72.55, -0.03 130.40 06/30/2021 23:27:21 -72.57, -0.03 130.37 1.24 73
43 07/01/2021 00:19:16 72.37, 167.65 49.40 07/01/2021 00:18:03 72.39, 166.97 49.48 23.22 73
44 07/01/2021 01:10:00 -72.36, -25.01 130.61 07/01/2021 01:08:47 -72.34, -25.82 130.57 27.24 73
45 07/01/2021 02:00:40 72.06, 142.87 49.07 07/01/2021 01:59:31 72.06, 140.99 49.20 64.26 69
46 07/01/2021 02:51:24 -72.05, -49.80 130.94 07/01/2021 02:50:14 -72.06, -51.69 130.80 64.85 70



Historial Predications of SNOs between NOAA-20 and METOP-C
